[[{"header":{"parameterUnit":"m.s-1","parameterCategory":1,"la1":30.2991,"la2":30.254,"lo1":-89.0895,"lo2":-89.0444,"dy":0.0017,"dx":0.0017,"nx":28,"ny":28,"refTime":"2025-06-07T03:00:00:Z","depth":0,"parameterNumber":2,"parameterNumberName":"U-component_of_WINDS"},"data":[0,0,0,0,0,0,0,0,0,0,0,0,0,0,0,0,0,0,0,0,0,0,0,0,0,0,0,0,0,0,0,0,0,0,0,0,0,0,0,0,0,0,0,0,0,0,0,0,0,0,0,0,0,0,0,0,0,0,2.6174,2.6175,0,2.6268,2.6269,2.627,2.6341,2.6342,2.6343,2.6343,2.6437,2.6439,2.6441,0,0,0,0,0,0,0,0,0,0,0,0,0,2.6059,2.6061,2.6174,2.6175,2.6177,2.6268,2.6269,2.627,2.6341,2.6342,2.6343,2.6344,2.6437,2.6439,2.6441,0,0,0,0,0,0,0,0,0,0,0,0,0,2.6127,2.6062,2.6174,2.6223,2.6228,2.6267,2.6269,2.6271,2.6341,2.6342,2.6343,2.6344,2.6436,2.6439,2.6442,2.6439,0,0,2.645,2.6451,0,0,0,0,0,0,0,0,2.6123,2.6131,2.6215,2.622,2.6226,2.6294,2.6263,2.6327,2.6341,2.6298,2.6343,2.6345,2.6389,2.6396,2.6411,2.6443,2.6447,2.645,2.6452,2.6453,2.6454,0,0,0,0,0,0,0,2.6118,2.6127,2.6211,2.6216,2.6223,2.6241,2.6252,2.6276,2.6337,2.6302,2.6307,2.6318,2.6392,2.6408,2.6414,2.6449,2.645,2.6453,2.6455,2.6456,2.6489,2.6488,0,0,0,0,0,0,2.6106,2.6123,2.6208,2.6214,2.6176,2.6242,2.6254,2.6271,2.6337,2.6348,2.6317,2.6321,2.6403,2.641,2.6417,2.6421,2.6453,2.6456,2.6458,2.649,2.6489,2.6488,0,0,0,0,0,0,2.6103,2.6113,2.6205,2.617,2.6183,2.6243,2.6262,2.6272,2.6288,2.6348,2.6359,2.6322,2.6404,2.6413,2.6434,2.6425,2.6457,2.646,2.6491,2.6489,2.6488,2.6426,0,0,0,0,0,0,2.6099,2.6111,2.611,2.6169,2.6185,2.6219,2.6261,2.6274,2.6293,2.6299,2.6355,2.6366,2.6405,2.643,2.6437,2.643,2.6462,2.6492,2.649,2.6489,2.6429,2.6423,2.6418,0,0,0,0,0,2.6095,2.6087,2.6109,2.6119,2.6184,2.6218,2.6227,2.6273,2.6292,2.6292,2.6331,2.6364,2.6425,2.6431,2.644,2.6433,2.6492,2.6491,2.6489,2.6432,2.6424,2.6418,0,0,0,0,0,0,2.6022,2.6096,2.6121,2.6132,2.6169,2.623,2.6231,2.6263,2.6294,2.6298,2.6354,2.6367,2.6382,2.641,2.6415,2.6437,2.6463,2.6463,2.6417,2.641,2.6405,2.6397,2.6464,0,0,0,0,0,2.6008,2.603,2.6092,2.6096,2.6114,2.6169,2.6186,2.6219,2.6259,2.6274,2.6314,2.6352,2.638,2.6397,2.6426,2.6435,2.645,2.6435,2.6429,2.6424,2.6423,2.6433,2.6428,2.6482,2.6482,2.6482,0,0,2.5978,2.6021,2.603,2.6083,2.6115,2.6137,2.6181,2.6201,2.6219,2.6277,2.63,2.6331,2.6377,2.6393,2.6402,2.6417,2.6412,2.6422,2.6417,2.6419,2.6431,2.6426,2.6421,2.6481,2.6481,2.6481,0,0,2.5934,2.5968,2.5977,2.6009,2.6059,2.6097,2.6099,2.6157,2.6181,2.6205,2.625,2.6272,2.6319,2.6351,2.6373,2.6348,2.638,2.6356,2.6325,2.6334,2.633,2.6326,2.6319,2.6316,2.6355,2.6355,2.6355,0,2.589,2.5924,2.5977,2.5996,2.6019,2.6076,2.6086,2.6115,2.617,2.6186,2.6202,2.6265,2.63,2.6325,2.632,2.6335,2.6341,2.6348,2.6326,2.6323,2.6321,2.6315,2.6312,2.6352,2.6352,2.6352,2.6353,0,2.5869,2.5893,2.5894,2.5949,2.5972,2.5986,2.6043,2.606,2.6093,2.613,2.6156,2.6201,2.6242,2.6251,2.6281,2.6282,2.629,2.6316,2.6343,2.6312,2.6307,2.6305,2.6347,2.6348,2.6349,2.635,0,0,2.5777,2.5865,2.5865,2.5892,2.5953,2.5973,2.5992,2.6033,2.6049,2.6087,2.6105,2.6146,2.6172,2.6197,2.6233,2.6241,2.6222,2.6267,2.6269,2.6257,2.6228,2.6208,2.6204,2.6245,2.6244,2.6244,2.6225,0,2.5743,2.578,2.583,2.585,2.5874,2.5932,2.5949,2.5989,2.6025,2.6052,2.6092,2.6121,2.6152,2.6168,2.6179,2.6221,2.6216,2.6224,2.6262,2.6263,2.6248,2.6201,2.6179,2.6158,2.6223,2.6222,2.6222,0,2.5707,2.5745,2.5767,2.5831,2.5843,2.5857,2.5902,2.5926,2.5975,2.6001,2.6032,2.6072,2.6097,2.6124,2.616,2.6164,2.6184,2.6208,2.6208,2.6212,2.6239,2.6204,2.6152,2.6149,2.6219,2.622,2.622,0,2.5639,2.5696,2.5718,2.5739,2.5814,2.5823,2.5854,2.5904,2.5927,2.5967,2.5983,2.6024,2.6047,2.6079,2.613,2.6144,2.6162,2.6192,2.6185,2.6184,2.6184,2.6183,2.6134,2.6197,2.6198,2.6198,2.6198,0,2.5595,2.5607,2.5689,2.5702,2.5718,2.5778,2.5793,2.583,2.5875,2.5897,2.595,2.597,2.6037,2.6066,2.6107,2.6132,2.6141,2.6164,2.6175,2.6159,2.6156,2.6171,2.6174,2.6197,2.6197,2.6197,2.6197,0,2.552,2.5575,2.5604,2.5674,2.5692,2.5701,2.5762,2.5778,2.582,2.5848,2.5858,2.5923,2.5961,2.6016,2.6069,2.6097,2.6116,2.6133,2.61,2.6106,2.6097,2.6097,2.6055,2.6053,2.6117,2.6117,2.6116,0,2.5488,2.5499,2.5572,2.5592,2.5622,2.5652,2.5678,2.5739,2.5763,2.5823,2.5832,2.5874,2.591,2.5968,2.602,2.6063,2.6081,2.6064,2.6088,2.6073,2.6082,2.6081,2.6083,2.6058,2.6057,2.6056,2.6055,0,2.5425,2.5453,2.5487,2.5533,2.5563,2.5601,2.5642,2.5655,2.5726,2.5751,2.5791,2.5819,2.5876,2.5918,2.5969,2.6002,2.6041,2.6048,2.6049,2.6032,2.6013,2.6024,2.6084,2.6048,2.6049,2.6049,2.605,2.605,2.5371,2.5385,2.5439,2.5477,2.5516,2.5554,2.5574,2.562,2.5655,2.5706,2.5741,2.578,2.5833,2.5905,2.5938,2.597,2.5986,2.5986,2.5987,2.5986,2.5981,2.6009,2.5979,2.598,2.598,2.598,2.598,0,2.5311,2.5351,2.5385,2.5443,2.5474,2.551,2.5559,2.5582,2.5616,2.5663,2.5699,2.5747,2.5789,2.5847,2.5894,2.5909,2.5928,2.5919,2.5918,2.5926,2.5963,2.5958,2.5903,2.5903,2.5903,2.5903,2.5903,2.5903,2.5283,2.531,2.5346,2.5393,2.5433,2.5472,2.5497,2.5534,2.5572,2.5624,2.566,2.5698,2.5751,2.5803,2.5844,2.5861,2.5875,2.5861,2.5883,2.5916,2.5923,2.5929,2.5925,2.5864,2.5864,2.5843,2.5843,2.5842]},{"header":{"parameterUnit":"m.s-1","parameterCategory":1,"la1":30.2991,"la2":30.254,"lo1":-89.0895,"lo2":-89.0444,"dy":0.0017,"dx":0.0017,"nx":28,"ny":28,"refTime":"2025-06-07T03:00:00:Z","depth":0,"parameterNumber":3,"parameterNumberName":"V-component_of_WINDS"},"data":[0,0,0,0,0,0,0,0,0,0,0,0,0,0,0,0,0,0,0,0,0,0,0,0,0,0,0,0,0,0,0,0,0,0,0,0,0,0,0,0,0,0,0,0,0,0,0,0,0,0,0,0,0,0,0,0,0,0,4.7515,4.7517,0,4.7699,4.7701,4.7703,4.7763,4.7763,4.7762,4.7761,4.7941,4.7946,4.7952,0,0,0,0,0,0,0,0,0,0,0,0,0,4.7207,4.7212,4.7515,4.7517,4.7519,4.7699,4.7701,4.7704,4.7764,4.7763,4.7762,4.7761,4.7939,4.7946,4.7952,0,0,0,0,0,0,0,0,0,0,0,0,0,4.736,4.7214,4.7514,4.7571,4.7578,4.7698,4.7701,4.7704,4.7764,4.7763,4.7761,4.776,4.7937,4.7945,4.7953,4.8027,0,0,4.7978,4.7982,0,0,0,0,0,0,0,0,4.7352,4.7372,4.756,4.7567,4.7575,4.7707,4.7659,4.7812,4.7764,4.7693,4.7761,4.776,4.7864,4.7878,4.7915,4.8036,4.8044,4.7979,4.7984,4.7988,4.799,0,0,0,0,0,0,0,4.7341,4.7364,4.7587,4.7563,4.7572,4.7585,4.7605,4.7688,4.7782,4.7699,4.7704,4.7725,4.7867,4.7906,4.7919,4.8046,4.7979,4.7986,4.7991,4.7995,4.8237,4.8239,0,0,0,0,0,0,4.7322,4.7355,4.7582,4.7593,4.7459,4.7591,4.7614,4.7666,4.7782,4.7798,4.7726,4.7728,4.7893,4.7909,4.7926,4.8021,4.7988,4.7995,4.8,4.8236,4.8238,4.8239,0,0,0,0,0,0,4.7315,4.7342,4.7574,4.7475,4.7506,4.7598,4.7655,4.767,4.771,4.7802,4.7818,4.775,4.7893,4.7914,4.8002,4.8028,4.7999,4.8007,4.8234,4.8236,4.8239,4.8211,0,0,0,0,0,0,4.7306,4.7339,4.737,4.7476,4.7511,4.765,4.7657,4.7675,4.7725,4.7728,4.7828,4.7844,4.7893,4.799,4.8011,4.8039,4.8013,4.8232,4.8235,4.8238,4.821,4.8212,4.8213,0,0,0,0,0,4.7295,4.7353,4.7371,4.7398,4.7552,4.7651,4.7671,4.773,4.7727,4.7757,4.7817,4.784,4.8022,4.7998,4.8022,4.8053,4.8231,4.8234,4.8238,4.8209,4.8211,4.8213,0,0,0,0,0,0,4.7244,4.7368,4.7389,4.7484,4.7557,4.7661,4.7702,4.773,4.7804,4.7804,4.787,4.7892,4.7975,4.8023,4.7995,4.8131,4.8127,4.8135,4.8097,4.81,4.8102,4.8088,4.802,0,0,0,0,0,4.7245,4.7318,4.742,4.7493,4.753,4.7609,4.7655,4.7694,4.7771,4.7801,4.7867,4.7939,4.8012,4.8059,4.8131,4.8217,4.8239,4.825,4.8251,4.8253,4.8259,4.8307,4.8313,4.825,4.825,4.825,0,0,4.7245,4.7321,4.7363,4.7485,4.7547,4.7618,4.7635,4.771,4.7763,4.7812,4.79,4.7951,4.8035,4.8123,4.8164,4.8165,4.8281,4.8257,4.8257,4.8263,4.8311,4.8317,4.8322,4.8253,4.8252,4.8252,0,0,4.7282,4.7348,4.7417,4.7479,4.7573,4.7626,4.7642,4.7743,4.7779,4.7869,4.7908,4.797,4.8095,4.8154,4.82,4.826,4.8284,4.8281,4.8291,4.8337,4.8342,4.8347,4.8368,4.8375,4.8287,4.8287,4.8287,0,4.727,4.7383,4.7447,4.7522,4.7574,4.7625,4.7693,4.7749,4.786,4.7893,4.7893,4.8052,4.8112,4.8214,4.8229,4.8264,4.8283,4.827,4.8337,4.8342,4.8348,4.8368,4.8376,4.8286,4.8287,4.8287,4.8287,0,4.7363,4.744,4.7484,4.7594,4.765,4.7721,4.7794,4.7843,4.7877,4.793,4.802,4.8095,4.8183,4.821,4.8243,4.8316,4.8314,4.8324,4.8322,4.8352,4.8372,4.8381,4.8285,4.8285,4.8286,4.8286,0,0,4.7372,4.7519,4.7534,4.7584,4.7692,4.7752,4.7823,4.7913,4.7954,4.8029,4.809,4.8195,4.8206,4.8258,4.8297,4.8338,4.8381,4.8344,4.8347,4.8348,4.8467,4.8458,4.8467,4.8398,4.84,4.8402,4.846,0,4.7424,4.7559,4.7619,4.7725,4.7797,4.7846,4.7909,4.798,4.8031,4.8097,4.8151,4.8225,4.8234,4.8266,4.8309,4.8367,4.8406,4.8364,4.8454,4.8456,4.8431,4.8478,4.8469,4.852,4.8468,4.847,4.8471,0,4.7501,4.758,4.7694,4.7794,4.7826,4.7882,4.7969,4.8033,4.8114,4.8148,4.8207,4.8245,4.832,4.8313,4.8417,4.8387,4.8427,4.8461,4.8464,4.8475,4.8465,4.8489,4.8538,4.8545,4.8484,4.8483,4.8482,0,4.7497,4.7631,4.7717,4.7759,4.7877,4.7915,4.7966,4.8046,4.8097,4.8172,4.8205,4.8286,4.8331,4.8392,4.845,4.844,4.8548,4.8546,4.8577,4.8575,4.8597,4.8595,4.8653,4.8623,4.8623,4.8623,4.8623,0,4.7547,4.7615,4.7717,4.7769,4.7846,4.7914,4.7988,4.8041,4.8113,4.8175,4.8222,4.8278,4.8353,4.8418,4.8464,4.8543,4.8562,4.859,4.8601,4.8586,4.8582,4.8613,4.8611,4.8625,4.8624,4.8624,4.8624,0,4.7555,4.7626,4.7723,4.7829,4.7857,4.7908,4.7997,4.8049,4.8103,4.8181,4.8203,4.8286,4.8366,4.8431,4.8533,4.8564,4.8647,4.8659,4.862,4.8626,4.8654,4.865,4.8733,4.8748,4.8708,4.8708,4.8708,0,4.7582,4.7636,4.7748,4.7795,4.7846,4.792,4.7973,4.8041,4.8094,4.8191,4.8231,4.8314,4.8385,4.851,4.8577,4.8656,4.8671,4.8695,4.8683,4.8666,4.8672,4.8668,4.8673,4.8696,4.8696,4.8696,4.8696,0,4.7623,4.7656,4.7732,4.782,4.7882,4.7954,4.8026,4.8061,4.8142,4.8198,4.8282,4.8337,4.8445,4.8527,4.8613,4.8662,4.8692,4.87,4.8711,4.8696,4.8671,4.8685,4.8623,4.8697,4.8697,4.8697,4.8697,4.8697,4.7642,4.7692,4.778,4.7862,4.7925,4.7992,4.8047,4.8108,4.818,4.8275,4.831,4.8396,4.8476,4.8596,4.8646,4.8712,4.8715,4.8731,4.8735,4.8738,4.8737,4.8661,4.8728,4.8728,4.8728,4.8728,4.8728,0,4.7685,4.7744,4.782,4.7922,4.7986,4.8013,4.8094,4.8146,4.8222,4.8295,4.8365,4.8461,4.8541,4.8616,4.8699,4.8738,4.8754,4.8757,4.8755,4.8766,4.8729,4.8711,4.8743,4.8743,4.8743,4.8743,4.8743,4.8743,4.7715,4.7802,4.7846,4.7964,4.8022,4.8109,4.8154,4.8215,4.8274,4.8381,4.8449,4.8499,4.8572,4.8661,4.8735,4.8755,4.8783,4.8783,4.8806,4.8771,4.8768,4.8766,4.8749,4.8789,4.8789,4.8838,4.8838,4.8838]}]]